SCP
0 0 0 0 0 0 0 0 0 0 0 1 1 0 0 0 0 0 1 1 1 1 1 2 2 1 1 1 1 1 1 0 1 1 1 0 0 0 0 0 0 0 0
0 0 0 0 0 0 0 0 0 0 0 0 0 0 0 0 0 0 1 1 1 1 1 1 2 2 1 1 1 1 1 1 1 1 1 1 1 0 0 0 0 0 0
0 0 0 0 0 0 0 0 0 0 0 0 0 0 0 0 0 0 0 1 1 1 1 1 1 1 1 1 1 1 1 1 1 1 1 1 1 1 1 1 0 0 0
0 0 0 0 0 0 0 0 0 0 0 0 0 0 0 0 0 0 0 0 1 1 1 1 1 1 1 1 1 1 1 1 1 1 1 1 1 1 1 1 1 1 1
0 0 0 0 0 0 0 0 0 0 0 0 0 0 0 0 0 0 0 0 1 1 1 1 1 1 1 1 1 1 1 1 1 1 1 1 1 1 1 1 1 1 1
0 0 0 0 0 0 0 0 0 0 0 0 0 0 0 0 0 0 0 0 0 1 1 1 1 1 1 1 1 1 1 1 1 1 1 1 1 1 1 1 1 1 1
0 0 0 0 0 0 0 0 0 0 0 0 0 0 0 0 0 0 0 0 0 0 1 1 1 1 1 1 1 1 1 1 1 1 1 1 1 1 1 1 1 1 1
0 0 0 0 0 0 0 0 0 0 0 0 0 0 0 0 0 0 0 0 0 0 0 1 1 1 1 1 1 1 1 1 1 1 1 1 1 1 1 1 1 1 1
0 0 0 0 0 0 0 0 0 0 0 0 0 0 0 0 0 0 0 0 0 0 0 0 1 1 1 1 1 1 1 1 1 1 1 1 1 1 1 1 1 1 1
0 0 0 0 0 0 0 0 0 0 0 0 0 0 0 0 0 0 0 0 0 0 0 0 0 1 1 1 1 1 1 1 1 1 1 1 1 1 1 1 1 1 1
0 0 0 0 0 0 0 0 0 0 0 0 0 0 0 0 0 0 0 0 0 0 0 0 0 0 1 1 1 1 1 1 1 1 1 1 1 1 1 1 1 1 1
0 0 0 0 0 0 0 0 0 0 0 0 0 0 0 0 0 0 0 0 0 0 0 0 0 0 0 0 1 1 1 1 1 1 1 1 1 1 1 1 1 1 1
0 0 0 0 0 0 0 0 0 0 0 0 0 0 0 0 0 0 0 0 0 0 0 0 0 0 0 0 0 0 1 1 1 0 0 1 1 1 1 1 1 1 1
0 0 0 0 0 0 0 0 0 0 0 0 0 0 0 0 0 0 0 0 0 0 0 0 0 0 0 0 0 0 0 0 0 0 0 0 0 1 1 1 1 2 2
0 0 0 0 0 0 0 0 0 0 0 0 0 0 0 0 0 0 0 0 0 0 0 0 0 0 0 0 0 0 0 0 0 0 0 0 0 0 0 1 1 2 2
0 0 0 0 0 0 0 0 0 0 0 0 0 0 0 0 0 0 0 0 0 0 0 0 0 0 0 0 0 0 1 0 0 0 0 0 0 0 0 0 1 1 1
0 0 0 0 0 0 0 0 0 0 0 0 0 0 0 0 0 0 0 0 0 0 0 0 0 0 0 0 0 0 0 0 0 0 0 0 0 0 0 0 0 1 1
0 0 0 0 0 0 0 0 0 0 0 0 0 0 0 0 0 0 0 0 0 0 0 0 0 0 0 0 0 0 0 0 0 0 0 0 0 0 0 0 0 0 0
1 0 0 0 0 0 0 0 0 0 0 0 0 0 0 0 0 0 0 0 0 0 0 0 0 0 0 0 0 0 0 0 0 0 0 0 0 0 0 0 0 0 0
1 0 0 0 0 0 0 0 0 0 0 0 0 0 0 0 0 0 0 0 0 0 0 0 0 0 0 0 0 0 0 0 0 0 0 0 0 0 0 0 0 0 0
1 0 0 0 0 0 0 0 0 0 0 0 0 0 0 0 0 0 0 0 0 0 0 0 0 0 0 0 0 0 0 0 0 0 0 1 1 1 1 0 0 0 0
0 0 0 0 0 0 0 0 0 0 0 0 0 0 0 0 0 0 0 0 0 0 0 0 0 0 0 0 0 0 0 0 0 0 0 1 1 1 1 0 0 0 0
0 0 0 0 0 0 0 0 0 0 0 0 0 0 0 0 0 0 0 0 0 0 0 0 0 0 0 0 0 0 0 0 0 0 0 0 1 1 1 0 0 0 0
0 0 0 0 0 0 0 0 0 0 0 0 0 0 0 0 0 0 0 0 0 0 0 0 0 0 0 0 0 0 0 0 0 0 0 0 0 0 0 0 0 0 0
0 0 0 0 0 0 0 0 0 0 0 0 0 0 0 0 0 0 0 0 0 0 0 0 0 0 0 0 0 0 0 0 0 0 0 0 0 0 0 0 0 0 0
0 0 0 0 0 0 0 0 0 0 0 0 0 0 0 0 0 0 0 0 0 0 0 0 0 0 0 0 0 0 0 0 0 0 0 0 0 0 0 0 0 0 0
Wind_Speed
2 1 1 0 0 0 0 1 0 0 0 0 0 0 1 1 1 2 2 6 7 9 12 14 14 15 15 15 15 15 14 14 13 12 12 12 12 12 11 11 10 10 9
2 2 1 1 0 0 0 1 1 1 0 0 0 1 1 1 2 2 2 4 6 8 10 12 14 14 15 15 16 16 15 15 14 13 13 12 12 12 12 11 11 10 9
2 2 1 1 0 1 1 1 1 1 1 1 1 1 1 2 2 3 3 2 3 6 9 10 12 13 15 15 16 17 16 15 14 14 14 13 12 12 12 12 11 11 10
3 2 2 1 1 1 1 2 1 1 1 1 1 1 2 2 3 3 3 3 2 3 6 10 11 12 14 16 16 17 17 16 15 15 15 15 14 13 13 12 12 11 11
3 3 2 1 1 1 1 1 1 1 0 1 1 2 2 2 3 3 3 3 3 3 3 6 9 11 14 16 16 17 17 17 17 17 18 17 16 15 14 14 13 13 12
3 3 2 2 2 2 1 1 1 1 0 1 2 2 2 2 2 2 2 2 2 3 4 4 4 6 12 14 14 16 16 16 17 18 19 19 18 17 16 15 15 14 14
3 3 2 2 2 2 1 2 1 1 1 1 1 2 3 2 2 2 2 2 2 2 3 3 3 4 4 9 11 14 16 17 17 18 19 19 19 18 17 17 17 16 15
2 3 3 2 2 2 2 1 2 1 1 1 1 1 2 3 3 3 2 2 3 2 2 3 3 4 4 4 5 11 14 16 17 17 17 18 18 18 18 19 18 17 17
2 2 3 3 2 2 2 1 2 3 1 0 1 2 1 2 3 3 2 2 3 2 3 3 3 3 4 4 4 7 11 12 14 17 17 17 17 18 19 20 20 19 19
1 2 3 3 2 2 2 1 2 2 2 1 0 0 1 2 1 2 3 2 3 3 4 3 3 3 3 3 4 6 8 9 11 14 16 16 17 18 18 20 21 21 21
1 2 3 3 2 2 2 2 2 2 1 2 1 1 1 1 1 1 3 3 3 3 3 3 3 3 3 2 3 4 7 7 8 10 11 14 15 17 18 19 22 22 22
1 1 2 2 2 2 2 2 2 2 2 2 1 1 2 2 2 2 2 3 3 3 3 3 3 3 3 2 4 6 7 6 6 7 8 10 12 14 16 17 20 21 22
1 1 2 2 1 1 2 1 2 1 2 2 2 2 2 2 2 2 2 2 2 3 3 3 3 3 3 2 3 7 7 7 7 7 7 8 10 11 13 15 17 19 20
2 2 2 1 1 1 1 2 1 2 2 2 3 2 2 2 2 3 3 2 2 2 2 4 3 3 3 3 4 6 5 7 7 6 7 7 8 10 11 12 14 16 16
2 2 2 2 1 1 2 2 2 2 2 2 3 3 2 2 3 3 3 3 3 3 3 3 3 3 3 3 5 4 5 6 8 8 8 8 8 9 10 10 11 13 14
2 3 2 2 2 2 2 2 2 2 3 3 3 3 3 3 3 3 3 4 4 4 4 3 3 4 4 5 5 5 5 8 8 9 9 9 9 9 9 10 11 12 13
4 4 4 3 3 3 3 3 4 3 4 4 3 4 5 4 3 3 3 3 4 4 6 5 3 3 4 6 6 5 5 5 5 8 9 9 10 10 10 11 11 12 13
4 5 4 4 4 4 4 4 5 5 5 5 5 5 6 4 5 4 4 5 5 5 6 7 4 3 5 5 6 6 5 5 5 8 9 10 10 10 10 11 11 12 13
5 5 5 5 6 5 5 5 6 6 6 7 6 6 7 5 6 5 5 5 5 5 5 6 6 3 4 4 4 5 5 5 5 6 8 9 9 10 10 10 11 12 13
5 5 5 6 6 5 6 6 6 6 7 7 7 7 7 7 8 7 6 6 6 5 5 6 6 5 5 4 3 4 5 4 4 5 6 6 7 8 9 10 10 11 12
6 6 5 6 5 5 6 7 7 7 7 7 7 7 8 10 11 9 7 6 6 5 5 5 6 5 5 4 5 3 4 5 5 4 4 4 4 4 5 7 9 10 10
5 5 6 6 6 6 8 10 8 7 7 8 8 8 8 10 11 12 13 12 9 8 8 6 6 7 8 7 5 5 4 4 4 2 2 4 3 5 5 5 7 9 10
5 6 6 6 8 9 11 12 11 8 8 8 9 8 8 8 9 8 10 11 12 13 14 10 10 10 9 7 6 6 6 6 6 4 3 5 4 5 5 5 8 9 10
5 6 7 7 7 10 12 12 12 9 8 9 10 10 10 10 9 9 8 9 9 9 10 10 10 11 10 9 8 7 7 6 6 5 4 5 5 5 5 5 8 10 9
5 6 5 7 8 10 12 12 11 6 7 10 10 10 10 11 12 11 9 10 10 10 10 12 13 13 13 12 9 5 5 5 6 5 5 5 5 5 5 5 6 9 9
6 6 7 7 8 9 11 12 10 5 8 9 8 8 12 13 13 12 9 9 11 11 8 7 8 9 10 10 11 10 8 7 6 5 5 5 4 3 4 3 3 4 5
Wind_Direction
164 145 120 101 94 96 144 161 175 147 97 87 111 167 253 254 255 241 253 251 236 224 215 209 209 208 206 204 203 203 202 200 196 193 193 193 190 189 188 187 184 180 179
152 144 137 113 81 109 154 167 160 129 100 93 45 322 285 280 267 262 252 258 243 232 225 218 216 215 214 211 211 209 207 206 202 198 198 198 197 195 195 195 192 188 186
147 139 133 122 121 109 110 98 82 82 84 65 349 308 291 280 273 269 264 253 249 239 235 233 230 224 220 218 218 217 213 211 207 202 201 202 201 200 199 199 198 195 193
140 131 128 125 108 100 103 106 96 91 49 28 312 297 297 291 277 271 268 258 245 244 244 241 236 233 229 225 225 224 221 216 213 208 206 205 205 204 203 203 203 200 198
139 133 131 127 112 100 92 104 91 110 96 305 282 277 296 292 284 282 277 272 261 253 249 253 249 244 240 236 232 230 227 221 218 214 212 211 210 208 206 206 206 204 202
146 137 134 130 123 114 104 100 98 86 82 303 305 317 313 305 302 296 295 294 283 270 261 255 255 257 253 246 238 236 234 230 224 221 218 216 215 212 209 208 208 207 206
142 141 132 126 129 131 143 144 128 95 28 10 25 344 331 334 337 332 331 323 317 302 282 259 247 246 255 252 243 240 238 236 232 228 224 221 218 214 211 211 210 210 209
148 150 147 147 145 130 117 120 124 116 50 56 109 67 350 343 345 1 352 354 340 335 320 299 273 257 254 251 246 245 241 237 235 232 229 225 221 217 214 214 212 211 211
142 141 149 145 145 141 145 149 144 145 154 56 94 143 152 250 309 326 343 353 344 345 338 326 322 296 268 254 256 255 253 244 238 234 230 228 225 221 218 218 216 213 213
107 132 133 132 133 132 139 151 137 142 145 166 62 40 179 172 197 312 321 330 335 338 335 333 331 318 299 272 261 260 262 253 245 240 234 229 227 225 221 220 220 219 216
63 112 127 128 132 131 136 129 127 136 150 166 179 168 129 88 163 204 290 319 326 313 312 310 309 315 316 303 283 279 274 266 257 250 244 237 231 229 227 225 226 225 221
41 79 118 128 138 142 150 156 150 152 163 169 175 179 176 178 192 192 236 276 296 298 303 301 296 304 305 307 307 311 298 287 272 260 254 250 244 237 235 234 233 230 227
164 171 133 141 151 170 172 165 168 185 184 183 190 199 204 214 195 186 207 249 272 292 303 296 286 290 297 308 308 314 302 295 282 270 263 256 249 245 241 239 238 235 231
198 195 170 174 187 189 184 173 186 212 200 207 212 204 209 222 208 201 200 205 265 286 281 279 296 282 294 300 293 302 295 291 285 275 269 265 255 245 241 239 238 236 232
200 196 196 201 216 217 212 192 213 228 217 225 230 226 226 231 220 220 216 205 213 261 278 269 275 289 293 292 289 292 288 285 284 277 272 267 259 250 243 240 238 236 231
201 196 210 219 228 232 225 213 231 234 228 236 229 231 238 239 233 223 219 218 215 228 258 260 257 276 291 292 291 290 286 287 283 277 272 266 258 254 250 246 241 236 231
204 209 215 222 232 239 233 225 238 239 240 249 247 239 248 245 243 238 226 221 220 216 247 267 254 266 273 279 291 290 283 279 278 273 272 266 258 250 249 247 243 239 234
216 217 219 226 236 238 232 230 244 242 240 249 251 247 254 251 246 243 234 233 231 222 234 265 269 264 259 270 278 286 287 282 277 277 274 270 262 253 247 245 244 240 236
219 221 220 228 236 239 238 238 240 246 245 246 247 245 251 247 252 247 239 240 241 238 229 248 267 261 264 268 276 280 282 281 281 276 275 271 265 259 251 246 245 240 236
217 224 228 233 238 242 243 245 243 245 248 249 247 244 245 241 245 247 244 241 240 243 238 244 260 265 265 267 260 269 281 276 283 286 279 272 265 262 257 251 246 241 236
223 226 234 241 243 242 242 239 239 244 247 254 255 248 246 245 243 240 242 241 236 240 242 245 256 262 263 259 254 251 267 282 280 265 277 273 266 264 261 255 250 245 240
226 226 233 239 245 245 248 246 239 244 246 249 257 258 256 256 255 251 248 244 233 235 241 241 249 253 260 256 253 248 253 266 277 251 260 277 267 268 262 254 251 249 245
223 230 237 239 247 251 253 255 250 243 246 248 251 256 260 257 250 254 257 258 251 242 235 236 246 250 255 250 243 247 239 239 249 255 257 274 262 263 261 258 253 253 251
223 234 241 241 247 256 253 253 254 247 247 249 247 246 250 259 255 247 254 260 259 254 244 238 242 249 251 250 239 245 252 253 256 252 229 259 264 262 265 259 252 250 251
229 234 240 240 245 258 258 255 252 245 249 254 251 246 242 251 254 245 246 255 263 264 254 242 240 247 249 246 234 231 234 237 255 254 211 233 258 264 262 258 250 243 246
232 239 246 245 245 255 261 259 250 238 250 256 257 250 241 241 249 245 240 244 255 261 262 263 255 256 255 253 236 226 230 235 246 256 218 214 241 246 268 253 252 246 243